Flag for U.S.A. Weather past 2 weeks in Tyler, Texas, U.S.A.

Now
88 °F

Sunny.


Feels Like: 94 °F
Forecast: 76 / 91 °F
Wind: 17 mph from Southwest

Location: Tyler Pounds Field

Current Time: Jul 1, 2015 at 7:24:03 PM

Latest Report: Jul 1, 2015 at 6:53 PM


Visibility: 10 mi

Pressure: 29.96 "Hg

Humidity: 57%

Dew point: 71 °F

Location of TylerLocation

Historic Weather in Tyler — Graph

°F

Tyler temperature yesterday

Maximum temperature yesterday: 91 °F (at 2:53 PM)
Minimum temperature yesterday: 77 °F (at 9:53 PM)
Average temperature yesterday: 83 °F

Past Weeks' High & Low Weather Summary

 TemperatureHumidityPressure
High93 °F (Jun 24, 3:53 PM)94% (Jun 23, 5:53 AM)30.17 "Hg (Jun 23, 5:53 AM)
Low71 °F (Jun 28, 4:53 AM)42% (Jun 28, 5:53 PM)29.81 "Hg (Jun 17, 6:53 PM)
Average82 °F74%30.00 "Hg
* Reported Jun 16 5:53 PM — Jul 1 5:53 PM, Tyler, Weather by CustomWeather, © 2015

Note: Actual official high and low records may vary slightly from our data, if they occured in-between our weather recording intervals... More about our weather records

Advertising

Tyler weather history for previous 24 hours

 ConditionsComfort  
Time TempWeatherWind HumidityBarometerVisibility
5:53 PM
Wed, Jul 1
91 °FSunny.12 mph54%29.95 "Hg10 mi
4:53 PM90 °FPassing clouds.15 mph54%29.96 "Hg10 mi
3:53 PM90 °FSunny.13 mph54%29.97 "Hg10 mi
2:53 PM90 °FPassing clouds.14 mph54%29.99 "Hg10 mi
1:53 PM90 °FPassing clouds.13 mph56%30.01 "Hg10 mi
12:53 PM89 °FScattered clouds.14 mph55%30.03 "Hg10 mi
11:53 AM87 °FSunny.12 mph59%30.02 "Hg10 mi
10:53 AM85 °FSunny.13 mph61%30.02 "Hg10 mi
9:53 AM82 °FSunny.13 mph70%30.02 "Hg10 mi
8:53 AM78 °FPassing clouds.16 mph76%30.02 "Hg10 mi
7:53 AM75 °FSunny.9 mph85%30.01 "Hg10 mi
6:53 AM73 °FClear.6 mph90%30.01 "Hg10 mi
5:53 AM74 °FClear.9 mph88%29.98 "Hg10 mi
4:53 AM74 °FClear.9 mph85%29.97 "Hg10 mi
3:53 AM75 °FClear.12 mph85%29.98 "Hg10 mi
2:53 AM73 °FClear.8 mph90%29.99 "Hg10 mi
1:53 AM73 °FClear.7 mph88%29.99 "Hg10 mi
12:53 AM73 °FClear.7 mph88%29.99 "Hg10 mi
10:53 PM
Tue, Jun 30
78 °FClear.10 mph76%30.01 "Hg10 mi
9:53 PM77 °FClear.12 mph79%30.01 "Hg10 mi
8:53 PM78 °FSunny.13 mph76%29.99 "Hg10 mi
7:53 PM82 °FBroken clouds.18 mph65%29.98 "Hg10 mi
Weather by CustomWeather, © 2015

See weather overviewHow to use our weather pages